This demonstration page uses our WeatherBlox Daily Observations layout. Learn more.

Hourly Observations for January 4, 2017

Temp ( °F °C ) Dew Point ( °F °C ) Humidity (%) Winds ( mph kmh ) Pressure ( in mb ) Visibility ( mi km ) Precip ( " mm )
12:54 am 00:54 Clear 9 -12.8 0 -17.8 66 66 NNW 15 24 30.43 1031 10 16.0934 0 0
1:54 am 01:54 Clear 9 -12.8 -1 -18.3 64 64 NNW 13 20 30.43 1031 10 16.0934 0 0
2:54 am 02:54 Mostly Clear 8 -13.3 -1 -18.3 66 66 N 14 22 30.42 1030 10 16.0934 0 0
3:54 am 03:54 Cloudy 8 -13.3 -1 -18.3 66 66 N 13 20 30.41 1030 10 16.0934 0 0
4:54 am 04:54 Cloudy 9 -12.8 -1 -18.3 64 64 N 16 26 30.42 1030 10 16.0934 0 0
5:54 am 05:54 Cloudy 9 -12.8 -1 -18.3 64 64 NNW 12 19 30.43 1030 10 16.0934 0 0
6:54 am 06:54 Cloudy 9 -12.8 -1 -18.3 64 64 NW 9 15 30.44 1031 10 16.0934 0 0
7:54 am 07:54 Cloudy 10 -12.2 -1 -18.3 61 61 NW 9 15 30.42 1030 10 16.0934 0 0
8:54 am 08:54 Cloudy 10 -12.2 -1 -18.3 61 61 NNW 9 15 30.41 1030 10 16.0934 0 0
9:54 am 09:54 Cloudy 11 -11.7 -2 -18.9 55 55 NW 12 19 30.41 1030 10 16.0934 0 0
10:54 am 10:54 Cloudy 12 -11.1 -2 -18.9 53 53 NNE 7 11 30.41 1030 10 16.0934 0 0
11:54 am 11:54 Mostly Cloudy 13 -10.6 -2 -18.9 51 51 N 9 15 30.37 1029 10 16.0934 0 0
12:54 pm 12:54 Mostly Cloudy 13 -10.6 -3 -19.4 49 49 N 8 13 30.35 1028 10 16.0934 0 0
1:54 pm 13:54 Mostly Cloudy 14 -10 -2 -18.9 49 49 NNW 7 11 30.3 1026 10 16.0934 0 0
2:54 pm 14:54 Cloudy 14 -10 -2 -18.9 49 49 NNE 8 13 30.28 1025 10 16.0934 0 0
3:54 pm 15:54 Cloudy with Light Snow 13 -10.6 1 -17.2 59 59 NNE 8 13 30.28 1025 3 4.82802 0.001 0.001
4:12 pm 16:12 Cloudy with Light Snow 12 -11 3 -16 67 67 N 7 11 30.33 1027 2.5 4.02335 0 0
4:15 pm 16:15 Cloudy with Light Snow 12 -11.1 3 -16.1 67 67 N 7 11 30.33 1027 3 4.82802 0.001 0.001
4:24 pm 16:24 Cloudy with Light Snow 12 -11 3 -16 67 67 N 7 11 30.33 1027 2 3.21868 0 0
4:31 pm 16:31 Cloudy with Light Snow 12 -11.1 4 -15.6 70 70 N 7 11 30.33 1027 2 3.21868 0.001 0.001
4:54 pm 16:54 Cloudy with Light Snow 12 -11.1 4 -15.6 70 70 N 8 13 30.27 1025 2 3.21868 0.001 0.001
5:54 pm 17:54 Cloudy with Light Snow 11 -11.7 5 -15 77 77 NNE 8 13 30.27 1025 4 6.43736 0.01 0.254
6:10 pm 18:10 Cloudy with Light Snow 10 -12 7 -14 85 85 NNE 8 13 30.33 1027 1.25 2.011675 0 0
6:19 pm 18:19 Cloudy with Light Snow 10 -12 7 -14 85 85 NNE 6 9 30.33 1027 1.5 2.41401 0 0
6:26 pm 18:26 Cloudy with Light Snow 10 -12 7 -14 85 85 NNE 6 9 30.33 1027 1.5 2.41401 0 0
6:54 pm 18:54 Cloudy with Light Snow 10 -12.2 7 -13.9 87 87 NNE 3 6 30.28 1025 1.5 2.41401 0.02 0.508
7:41 pm 19:41 Cloudy with Light Snow 10 -12.2 7 -13.9 87 87 N 7 11 30.36 1028 2 3.21868 0.02 0.508
7:54 pm 19:54 Cloudy with Light Snow 10 -12.2 6 -14.4 84 84 N 7 11 30.28 1025 2 3.21868 0.02 0.508
8:15 pm 20:15 Cloudy with Light Snow 10 -12.2 7 -13.9 87 87 N 6 9 30.36 1028 2.5 4.02335 0.001 0.001
8:54 pm 20:54 Cloudy with Light Snow 10 -12.2 7 -13.9 87 87 N 8 13 30.27 1025 1.5 2.41401 0.01 0.254
9:54 pm 21:54 Cloudy with Light Snow 10 -12.2 7 -13.9 87 87 NNW 6 9 30.28 1026 1.25 2.011675 0.02 0.508
10:18 pm 22:18 Cloudy with Light Snow 10 -12 7 -14 85 85 N 5 7 30.36 1028 1.5 2.41401 0 0
10:45 pm 22:45 Cloudy with Light Snow 10 -12 7 -14 85 85 NNW 3 6 30.36 1028 2.5 4.02335 0 0
10:54 pm 22:54 Cloudy with Light Snow 10 -12.2 7 -13.9 87 87 NNW 3 6 30.27 1025 2 3.21868 0.02 0.508
11:05 pm 23:05 Cloudy with Light Snow 10 -12.2 7 -13.9 87 87 Calm 30.33 1027 2.5 4.02335 0.001 0.001
11:12 pm 23:12 Cloudy with Light Snow 9 -13 7 -14 92 92 N 3 6 30.33 1027 4 6.43736 0 0
11:42 pm 23:42 Cloudy with Light Snow 9 -13 5 -15 85 85 NW 3 6 30.36 1028 4 6.43736 0 0
11:54 pm 23:54 Mostly Cloudy with Mist and Fog 8 -13.3 6 -14.4 92 92 WNW 3 6 30.28 1025 6 9.65604 0.01 0.254

Powered by AerisWeather